Flag for Canada Weather past 2 weeks in Kelowna, British Columbia, Canada

Now
52 °F

Clear.


Feels Like: 52 °F
Forecast: 56 / 81 °F
Wind: 2 mph from North

Location: Kelowna Airport

Current Time: May 30, 2015 at 4:46:44 AM

Latest Report: May 30, 2015 at 4:00 AM


Visibility: 9 mi

Pressure: 29.89 "Hg

Humidity: 94%

Dew point: 50 °F

Location of KelownaLocation

Historic Weather in Kelowna — Graph

°F

Kelowna temperature yesterday

Maximum temperature yesterday: 79 °F (at 3:00 PM)
Minimum temperature yesterday: 57 °F (at 5:00 AM)
Average temperature yesterday: 68 °F

Past Weeks' High & Low Weather Summary

 TemperatureHumidityPressure
High84 °F (May 21, 3:00 PM)100% (May 17, 7:01 AM)30.15 "Hg (May 17, 7:01 AM)
Low37 °F (May 15, 5:00 AM)16% (May 21, 3:00 PM)29.68 "Hg (May 15, 6:00 PM)
Average63 °F62%29.94 "Hg
* Reported May 15 3:00 AM — May 30 3:00 AM, Kelowna, Weather by CustomWeather, © 2015

Note: Actual official high and low records may vary slightly from our data, if they occured in-between our weather recording intervals... More about our weather records

Advertising

Kelowna weather history for previous 24 hours

 ConditionsComfort  
Time TempWeatherWind HumidityBarometerVisibility
3:00 AM
Sat, May 30
54 °FClear.2 mph94%29.89 "Hg9 mi
2:00 AM55 °FPassing clouds.2 mph94%29.89 "Hg9 mi
1:00 AM55 °FClear.2 mph94%29.89 "Hg9 mi
12:00 AM55 °FClear.No wind94%29.89 "Hg9 mi
11:00 PM
Fri, May 29
63 °FPassing clouds.2 mph73%29.89 "Hg9 mi
10:00 PM63 °FPassing clouds.6 mph83%29.89 "Hg9 mi
9:00 PM64 °FThundershowers. Broken clouds.5 mph78%29.88 "Hg9 mi
8:00 PM68 °FPassing clouds.5 mph69%29.88 "Hg9 mi
7:00 PM70 °FPartly sunny.10 mph60%29.89 "Hg9 mi
6:00 PM64 °FThunderstorms. Cloudy.9 mph83%29.92 "Hg9 mi
5:00 PM68 °FOvercast.14 mph60%29.90 "Hg9 mi
4:00 PM72 °FThundershowers. Scattered clouds.23 mph57%29.90 "Hg9 mi
3:55 PM72 °FThundershowers. Broken clouds.22 mph57%29.89 "Hg9 mi
3:00 PM79 °FThundershowers. Scattered clouds.5 mph45%29.88 "Hg9 mi
2:00 PM77 °FSunny.2 mph44%29.88 "Hg9 mi
1:00 PM77 °FSunny.8 mph44%29.90 "Hg9 mi
12:03 PM75 °FScattered clouds.6 mph50%29.93 "Hg6 mi
11:00 AM73 °FSunny.6 mph50%29.96 "Hg9 mi
10:00 AM72 °FScattered clouds.5 mph57%29.97 "Hg9 mi
9:00 AM70 °FPassing clouds.2 mph57%29.98 "Hg9 mi
8:00 AM66 °FPassing clouds.No wind64%29.99 "Hg9 mi
7:00 AM63 °FSunny.2 mph77%30.00 "Hg9 mi
6:00 AM57 °FSunny.No wind82%30.01 "Hg9 mi
5:00 AM57 °FClear.No wind82%30.00 "Hg9 mi
4:00 AM63 °FClear.2 mph68%29.99 "Hg9 mi
Weather by CustomWeather, © 2015

See weather overviewHow to use our weather pages